Simultaneous Nadir Overpasses (SNOs) Predictions

Prediction of SNOs between GOES-17 and METOP-C Satellite Orbit:

Table of predicted SNOs for the next 14.0 days since TLE Epoch: 6/29/2024
Index Date Time (GOES-17) GOES-17 Lat,Lon METOP-C Lat,Lon Distance(km) Time Diff (sec)
1 06/29/2024 04:16:03 0.02,-104.70 0.71,-101.60 353.18 11
2 06/30/2024 16:33:46 -0.02,-104.72 0.29,-106.16 163.48 80
3 07/01/2024 16:13:07 0.01,-104.73 -0.78,-101.16 406.63 80
4 07/03/2024 04:34:48 -0.01,-104.71 -0.27,-105.75 119.40 80
5 07/04/2024 04:11:30 -0.01,-104.71 0.87,-100.76 449.73 80
6 07/05/2024 16:30:22 0.01,-104.73 0.11,-105.32 67.26 80
7 07/08/2024 04:31:24 0.01,-104.71 -0.05,-104.92 23.58 80
8 07/10/2024 16:29:37 -0.02,-104.75 -0.06,-104.48 29.68 80
9 07/12/2024 04:48:38 0.02,-104.74 -0.93,-109.08 495.03 80
